Regional Weather Roundup
Issued by NWS

Home | Current Version | Previous Version | Graphics & Text | Print | Product List | Glossary On
Versions: 1 2 3 4 5 6 7 8 9 10 11 12 13 14 15 16 17 18 19 20 21 22 23 24 25 26 27 28 29 30 31 32 33 34 35 36 37 38 39 40 41 42 43 44 45 46 47 48 49 50
000
ASUS43 KMKX 150911
RWRWI

WISCONSIN REGIONAL WEATHER ROUNDUP
NATIONAL WEATHER SERVICE MILWAUKEE/SULLIVAN WI
400 AM CDT MON SEP 15 2014

NOTE: "FAIR" INDICATES FEW OR NO CLOUDS BELOW 12,000 FEET WITH NO
SIGNIFICANT WEATHER AND/OR OBSTRUCTIONS TO VISIBILITY.

WIZ001-002-006>008-014>016-023>028-151000-
NORTHWEST WISCONSIN

CITY           SKY/WX    TMP DP  RH WIND       PRES   REMARKS
SUPERIOR ARPT  CLEAR     39  39  98 SW5       30.12S
ASHLAND        CLEAR     42  40  92 SW7       30.11F
HAYWARD        MOCLDY    44  43  96 SW3       30.13S
SIREN          PTCLDY    40  39  97 CALM      30.14S
RICE LAKE      MOCLDY    45  43  92 CALM      30.15S
LADYSMITH      CLOUDY    42  41  95 CALM      30.15R
EAU CLAIRE     CLOUDY    51  47  86 CALM      30.13S
MENOMONIE      CLOUDY    51  46  83 CALM      30.13S
NEW RICHMOND   MOCLDY    47  46  96 CALM      30.14F
OSCEOLA        MOCLDY    46  46 100 CALM      30.17S
$$

WIZ003>005-009-010-017-018-151000-
NORTH CENTRAL WISCONSIN

CITY           SKY/WX    TMP DP  RH WIND       PRES   REMARKS
WOODRUFF       CLEAR     38  37  92 CALM      30.10F
RHINELANDER    PTCLDY    38  37  97 CALM      30.12F FOG
EAGLE RIVER    FOG       36  36 100 CALM      30.10S VSB 3/4
LAND O LAKES   CLEAR     32  32 100 CALM      30.11S
PHILLIPS       PTCLDY    38  38 100 CALM      30.11S
TOMAHAWK       MOCLDY    37  36  96 CALM      30.12F
MEDFORD        DRIZZLE   46  45  95 CALM      30.12S
MERRILL        CLOUDY    44  44 100 CALM      30.12S
$$

WIZ029-030-035-036-043>047-151000-
CENTRAL WISCONSIN

CITY           SKY/WX    TMP DP  RH WIND       PRES   REMARKS
WAUSAU         CLOUDY    50  45  83 CALM      30.11S
MOSINEE        DRIZZLE   48  46  93 CALM      30.12F
MARSHFIELD     CLOUDY    50  48  93 CALM      30.11F
STEVENS POINT  DRIZZLE   49  48  95 CALM      30.12F
WAUPACA        LGT RAIN  54  51  91 CALM      30.12F
WAUTOMA        CLOUDY    52  51  96 CALM      30.13F
WISC RAPIDS    LGT RAIN  51  49  92 CALM      30.12F
CAMP DOUGLAS   CLOUDY    52  52 100 CALM      30.12F
$$

WIZ011>013-019>022-031-037>040-048>050-151000-
NORTHEAST WISCONSIN

CITY           SKY/WX    TMP DP  RH WIND       PRES   REMARKS
ANTIGO         CLOUDY    45  44  95 CALM      30.12S
STURGEON BAY   CLOUDY    54  46  76 W3        30.12R
GREEN BAY      RAIN      53  51  93 SW6       30.12S
MANITOWOC      CLOUDY    55  52  89 W5        30.12S
APPLETON       CLOUDY    52  48  87 NW5       30.13S
CLINTONVILLE   RAIN      52  48  87 CALM      30.12S
OSHKOSH        CLOUDY    53  50  89 SW3       30.12F
$$

WIZ032>034-041-042-053>061-151000-
SOUTHWEST WISCONSIN

CITY           SKY/WX    TMP DP  RH WIND       PRES   REMARKS
LA CROSSE      LGT RAIN  54  48  80 CALM      30.14R
SPARTA         LGT RAIN  51  49  95 CALM      30.14R
VIROQUA        CLOUDY    52  47  83 CALM      30.13S
BOSCOBEL       MOCLDY    51  49  92 CALM      30.13S
PRAIRIE DU CHI MOCLDY    52  49  90 CALM      30.12S
PLATTEVILLE    CLOUDY    51  48  90 CALM      30.13R
$$

WIZ056-057-062-063-064-067-068-151000-
SOUTH CENTRAL WISCONSIN

CITY           SKY/WX    TMP DP  RH WIND       PRES   REMARKS
BARABOO/DELLS  CLOUDY    52  48  84 CALM      30.13S
LONE ROCK      CLOUDY    54  48  80 CALM      30.13S
WATERTOWN      CLOUDY    51  49  91 CALM      30.13F
MADISON        CLOUDY    53  47  79 N3        30.13S
MIDDLETON      CLOUDY    53  51  92 CALM      30.13S
MONROE         CLOUDY    50  46  87 S6        30.12F
JANESVILLE     CLOUDY    50  46  87 CALM      30.13F
$$

WIZ051-052-058>065-066-070>072-151000-
SOUTHEAST WISCONSIN

CITY           SKY/WX    TMP DP  RH WIND       PRES   REMARKS
MILWAUKEE      MOCLDY    54  46  74 W3        30.14F
WAUKESHA       MOCLDY    46  45  93 CALM      30.14F
MILWAUKEE/TIMM PTCLDY    50  43  76 SW3       30.14S
RACINE         PTCLDY    52  45  77 SW5       30.15F
BURLINGTON     CLOUDY    44  44 100 CALM      30.14S
KENOSHA        MOCLDY    48  46  93 W5        30.15S
FOND DU LAC    CLOUDY    53  48  83 SW6       30.13S
SHEBOYGAN      CLOUDY    52  48  86 W3        30.12F
WEST BEND      CLOUDY    52  45  76 CALM      30.13S
JUNEAU         CLOUDY    49  47  92 CALM      30.14S
$$

LSZ147-162-151000-
LAKE SUPERIOR

STATION/POSITION TIME  TEMP    WIND        PRES    WAVE
                       AIR SEA DIR/SP/G            HT/PER
                 (UTC) (F)     (DEG/KT/KT) (MB)    (FT/S)
W MID LAKE BUOY  0850   48 47  260/  8/ 10 1018.3F   1/ 4
DEVILS ISLAND    0900   51     260/ 11/ 13 1019.2F
PORT WING        0800   45     190/  6/  8 1019.6F
SAXON HARBOR     0800   45     200/  4/  6 1019.6
$$

LMZ867-665-643>646-151000-
LAKE MICHIGAN

STATION/POSITION TIME  TEMP    WIND        PRES    WAVE
                       AIR SEA DIR/SP/G            HT/PER
                 (UTC) (F)     (DEG/KT/KT) (MB)    (FT/S)
N MID LAKE BUOY  0850   57 57  300/ 10/ 10 1019.0F   4/ 7
NORTHPORT PIER   0800   52     250/  3/  5 1019.3S
KEWAUNEE LAKESHO 0800   56     290/  3/  6 1018.7F
SHEBOYGAN LAKESH 0900   56 49  260/  8/ 10 1020.2F
PORT WASHINGTON  0840   56     190/  3/  5 1020.7S
MILWAUKEE LAKESH 0800   56     230/  9/ 12   N/A
S MID LAKE BUOY  0850   63 64  230/ 10/ 12 1020.9F   1/ 3
KENOSHA   LAKESH 0900   55     220/  2/  5 1020.7S
$$

TC  - TEMPERATURE IN CELSIUS
VSB - VISIBILITY IN STATUTE MILES
WCI - WIND CHILL INDEX
HX  - HEAT INDEX



USA.gov is the U.S. government's official web portal to all federal, state and local government web resources and services.